Content
SEND FEEDBACK

Daily
Averages
Monthly
Summary
Canada

QUEBEC CITY, QUEBEC


Home > North America > Canada > Quebec
Elevation: 72 meters     Latitude: 46 48N     Longitude: 071 23W

WEATHER
 
SELECT A DAY
Number of Records: 191,801;   Date Range: 6/30/96 - 7/10/14
 
SHARE

PRINT THIS DATA

[ ← Previous Day ]
WEATHER ALMANAC - 8 FEBRUARY, 2013
[ Next Day → ]
[ °F ]   °C
Weather ElementAverageHighLow
Temperature-15.9 °C-12.2 °C (7:00 pm)-24.4 °C (1:00 am)
Dewpoint-20.8 °C-15.6 °C (7:00 pm)-31 °C (1:00 am)
Humidity64.2 %73 % (7:00 pm)54 % (1:00 am)
Barometer999.3 hPa1035.6 hPa (1:00 am) (7:00 pm)
Wind Speed23.7 km/h44.4 km/h (7:00 pm)
Wind Gust61.2 km/h (4:00 pm)
Weather ElementAverage
Visibility9.8 km
Wind DirectionENE (54.1 °)

Weather ElementTotal
Precipitation---
Heating Degree Days36.7 (Base 18.3)
Averaged from 32 records on 8 February, 2013
WEATHER CONDITIONS BREAKOUT
WIND DIRECTION BREAKOUT
WEATHER BY HOUR - 8 FEBRUARY, 2013
[ °F ]   °C
Local TimeTemperatureDewpointHumidityBarometerVisibilityWind DirectionWind SpeedGust SpeedPrecipitationEventsConditions
1:00 AM-24.4 °C-28.3 °C57 %1035.2 hPaNorth (10°)3.7 km/h
1:00 AM-24 °C-31 °C54 %1035.6 hPa24.1 kmNNE (20°)9.3 km/hClear
2:00 AM-23 °C-29 °C59 %1035.6 hPa24.1 kmNNE (20°)7.4 km/hOvercast
3:00 AM-21 °C-28 °C55 %1035.2 hPa24.1 kmNorth (10°)11.1 km/hOvercast
4:00 AM-20.6 °C-24.4 °C60 %1034.9 hPaNE (40°)3.7 km/h
4:00 AM-21 °C-27 °C60 %1034.9 hPa24.1 kmNorth (10°)11.1 km/hOvercast
5:00 AM-19 °C-26 °C55 %1034.2 hPa24.1 kmNNE (30°)14.8 km/hOvercast
6:00 AM-19 °C-25 °C60 %1033.5 hPa9.7 kmENE (60°)14.8 km/hOvercast
7:00 AM-18 °C-22 °C72 %1033.5 hPa2.4 kmENE (60°)11.1 km/hSnowLight Snow
7:00 AM-17.2 °C-20 °C71 %1033.2 hPaENE (70°)7.4 km/h
8:00 AM-16 °C-21 °C66 %1033.9 hPa2.4 kmENE (60°)22.2 km/h35.2 km/hSnowLight Snow
9:00 AM-16 °C-20 °C72 %1034.2 hPa2.4 kmENE (60°)24.1 km/hSnowLight Snow
10:00 AM-15 °C-18.3 °C67 %1033.9 hPaENE (70°)20.4 km/h
10:00 AM-15 °C-20 °C66 %1033.9 hPa2.4 kmENE (60°)35.2 km/hSnowLight Snow
11:00 AM-15 °C-20 °C66 %1033.2 hPa2.4 kmENE (60°)33.3 km/h48.1 km/hSnowLight Snow
11:23 AM-15 °C-17.8 °C4 kmENE (60°)33.3 km/h46.3 km/hSnowLight Snow
12:00 PM-15 °C-20 °C66 %1032.2 hPa4 kmENE (60°)29.6 km/h48.1 km/hSnowLight Snow
1:00 PM-13.9 °C-17.2 °C64 %1031.2 hPaENE (70°)22.2 km/h
1:00 PM-14 °C-19 °C67 %1031.2 hPa2.4 kmENE (60°)29.6 km/h46.3 km/hSnowLight Snow
2:00 PM-14 °C-18 °C72 %1030.8 hPa2.4 kmEast (80°)25.9 km/h35.2 km/hSnowLight Snow
3:00 PM-13 °C-18 °C67 %1030.1 hPa4.8 kmENE (60°)25.9 km/h40.7 km/hSnowLight Snow
4:00 PM-12.8 °C-16.7 °C63 %1028.8 hPaENE (70°)24.1 km/h
4:00 PM-13 °C-18 °C67 %1028.8 hPa6.4 kmENE (70°)38.9 km/h61.2 km/hSnowLight Snow
5:00 PM-13 °C-18 °C67 %1028.8 hPa6.4 kmENE (60°)38.9 km/h48.1 km/hSnowLight Snow
6:00 PM-13 °C-18 °C67 %1028.4 hPa8 kmENE (70°)31.5 km/h57.5 km/hSnowLight Snow
7:00 PM-12.2 °C-15.6 °C67 %1028.1 hPaENE (70°)22.2 km/h
7:00 PM-13 °C-17 °C73 %1028.4 hPa6.4 kmENE (60°)44.4 km/h57.5 km/hSnowLight Snow
8:00 PM-13 °C-18 °C67 %1028.1 hPa6.4 kmENE (60°)38.9 km/h55.5 km/hSnowLight Snow
9:00 PM-13 °C-19 °C62 %1027.8 hPa12.9 kmENE (60°)35.2 km/h48.1 km/hSnowLight Snow
10:00 PM-12.2 °C-16.7 °C57 %1026.8 hPaENE (70°)18.5 km/h
10:00 PM-13 °C-19 °C62 %1026.8 hPa12.9 kmNE (50°)31.5 km/h46.3 km/hSnowLight Snow
11:00 PM-13 °C-19 °C62 %1026.1 hPa16.1 kmENE (60°)35.2 km/h46.3 km/hSnowLight Snow
Hourly data recorded from CYQB, located 0 kilometers away from Quebec City, Quebec







STORIES FROM OUR PARTNERS